{"data":{"norad_id":46351,"intl_designator":"2020-062AC","name":"STARLINK-1646","alt_names":[],"object_type":"PAYLOAD","status":"ACTIVE","operator":null,"country":"US","launch_date":"2020-09-03","launch_site_code":"AFETR","launch_vehicle":null,"mission":null,"orbit_class":"UNKNOWN","rcs_meters":null,"size_class":null,"mass_kg":null,"dimensions":null,"purposes":["comms"],"wikipedia_slug":null,"has_3d_model":false,"image_url":null,"decayed_at":null,"tle_current":{"epoch":"2026-05-24T20:48:14.982912Z","epoch_age_seconds":82559,"freshness":"FRESH","line1":"1 46351U 20062AC  26144.86684008  .00108405  00000+0  75171-3 0  9997","line2":"2 46351  53.0414 321.3493 0003836 279.2384  80.8200 15.73656026316838","mean_motion":15.73656026,"eccentricity":0.0003836,"inclination_deg":53.0414,"raan_deg":321.3493,"arg_perigee_deg":279.2384,"mean_anomaly_deg":80.82,"bstar":0.00075171,"rev_number":31683,"period_min":91.506655597429,"perigee_km":345.87801518243,"apogee_km":351.0386591251,"semimajor_km":6726.5953371538,"source":"CELESTRAK","updated_at":"2026-05-25T13:38:16.472211Z"}}}